Temp
9 9 10 9 8 8 8 9 10 10 11 11 11 12 12 12 11 10 10 8 8 8 8 6 5 4 4
9 7 7 7 7 7 8 8 9 10 10 11 10 11 11 11 10 10 10 8 8 7 6 5 4 3 3
8 7 6 6 6 7 7 8 8 9 11 11 10 10 11 11 10 10 9 8 7 7 4 4 3 2 2
7 6 6 5 6 6 6 6 7 8 8 9 9 9 9 9 9 8 8 7 6 6 4 3 2 2 2
6 5 4 4 5 5 4 4 5 6 6 6 6 5 5 5 5 4 4 4 5 5 3 1 0 0 -0
4 5 5 5 5 5 3 3 2 4 5 3 4 4 4 4 4 4 4 4 3 2 0 -1 -0 -0 0
3 4 5 7 6 4 4 3 3 3 4 0 2 2 2 2 2 2 2 2 1 -1 -1 -0 -0 -1 -0
3 4 5 7 8 8 5 3 2 1 3 -1 -0 -0 1 1 0 1 -0 -0 -1 -1 0 -1 -1 -1 -1
3 4 5 6 6 5 2 2 -1 -0 1 -0 -2 -2 -2 -1 -1 -1 -1 -1 -2 -1 -2 -1 -1 -1 -1
3 4 5 6 6 7 5 2 -1 -2 -0 -0 -3 -2 -3 -2 -2 -2 -2 -2 -3 -2 -2 -2 -2 -2 -2
3 4 6 5 5 5 5 4 2 1 2 3 -2 -2 -3 -4 -4 -3 -2 -2 -3 -3 -3 -3 -3 -3 -3
3 3 4 3 3 3 3 3 3 5 3 2 -0 -1 -3 -3 -4 -3 -3 -3 -3 -3 -3 -3 -3 -3 -3
1 1 1 1 2 2 2 1 1 0 0 1 3 -1 -1 -4 -5 -4 -5 -4 -3 -3 -3 -3 -3 -3 -3
1 0 -1 -1 -1 0 -1 -1 -2 -3 -2 -1 -0 0 -3 -3 -4 -5 -4 -4 -4 -4 -4 -4 -4 -4 -4
-2 -3 -3 -3 -3 -3 -3 -3 -4 -5 -5 -3 -2 -2 -2 -3 -4 -4 -4 -5 -5 -4 -4 -3 -4 -4 -4
-3 -3 -4 -4 -5 -4 -4 -4 -5 -6 -6 -6 -4 -5 -5 -6 -4 -5 -5 -5 -5 -5 -4 -3 -4 -5 -5
-3 -4 -4 -4 -5 -5 -6 -6 -6 -6 -7 -6 -5 -4 -8 -10 -7 -6 -5 -5 -5 -5 -5 -4 -4 -5 -5
Height
737 736 737 741 741 742 744 746 748 749 751 749 750 751 750 753 763 772 779 785 789 799 805 812 821 825 828
735 736 738 739 739 741 743 744 745 746 747 747 747 749 747 751 758 765 770 780 785 796 802 808 817 822 826
733 734 735 735 739 740 742 743 743 743 744 745 747 749 751 753 758 764 770 779 784 792 799 805 812 819 822
728 729 731 732 736 739 743 745 744 744 745 748 750 751 755 756 760 764 770 777 784 790 797 805 810 815 820
721 723 725 730 731 737 741 744 744 746 748 752 754 757 761 761 764 768 773 778 783 791 797 803 810 814 816
720 717 718 723 727 734 738 742 747 749 751 755 758 760 764 767 769 773 777 778 784 791 797 804 808 810 813
716 716 716 716 719 730 733 738 741 747 750 758 761 764 767 771 774 775 777 781 786 792 798 802 804 807 810
711 712 714 715 716 720 727 735 741 744 748 757 761 766 769 771 776 777 781 786 790 792 795 800 803 806 807
704 706 709 711 713 716 724 731 740 744 746 751 760 765 770 774 777 779 783 787 790 792 794 798 801 803 803
698 699 701 705 706 710 714 722 732 741 743 748 756 763 772 775 777 780 783 787 791 792 794 797 799 799 800
691 692 693 695 699 704 708 713 719 725 730 739 748 756 761 770 776 779 782 786 789 792 793 795 796 797 797
685 685 686 689 695 700 705 711 715 719 724 732 737 745 752 766 772 778 782 786 788 790 791 792 793 794 795
679 681 682 685 690 696 703 709 715 720 724 730 733 740 748 754 763 772 779 784 786 788 789 791 792 792 793
673 678 681 686 690 694 700 708 714 722 728 732 734 740 749 755 761 770 776 778 783 786 788 789 790 790 790
669 675 680 685 691 696 700 706 711 723 729 734 739 746 752 756 763 770 774 778 782 785 786 787 788 789 790
665 671 678 684 690 697 701 706 712 721 728 735 741 746 755 765 770 772 776 778 781 783 784 785 787 789 790
662 669 676 684 690 696 703 709 717 724 732 736 741 743 754 766 774 775 776 779 780 782 783 784 786 788 788
Wind_Speed
9 8 9 6 4 5 9 12 13 12 14 14 17 21 19 48 51 45 40 42 37 29 23 18 13 12 9
9 9 9 8 5 3 4 6 10 10 13 12 11 10 10 48 47 48 47 43 37 28 20 17 15 12 9
12 9 6 9 6 4 2 3 5 4 5 6 9 10 11 31 42 44 44 40 30 23 22 21 19 11 8
16 12 8 7 10 9 9 10 13 12 7 8 11 19 25 36 39 40 39 33 28 20 20 17 14 12 11
10 9 9 9 15 13 10 13 14 17 19 20 22 24 23 28 32 31 27 24 19 16 17 14 11 9 7
10 8 17 17 19 21 21 10 3 15 18 17 21 23 20 18 20 21 20 18 16 16 15 14 11 9 7
16 15 13 24 23 23 24 17 10 22 23 14 17 18 20 17 17 18 17 18 18 18 15 12 9 7 6
23 23 23 24 27 30 32 23 12 25 18 6 18 18 18 18 15 16 16 15 17 15 12 10 8 6 6
25 20 25 28 27 25 27 23 5 12 16 10 12 14 13 16 15 15 15 16 14 11 10 8 6 6 5
25 29 27 32 34 30 32 26 12 5 21 11 22 13 6 9 14 15 16 16 12 9 7 6 5 4 5
24 24 26 33 35 31 30 34 25 6 29 23 22 17 7 9 12 14 18 16 12 9 7 6 4 3 5
23 21 28 31 30 29 26 26 27 19 28 31 19 26 14 10 9 20 18 13 11 9 7 6 4 4 4
20 19 24 30 30 27 25 23 19 17 30 28 22 32 22 19 16 20 21 13 11 9 6 4 4 3 3
23 24 26 28 28 30 31 28 28 22 18 16 22 31 20 21 28 24 16 10 14 8 5 3 2 1 1
28 26 24 26 26 28 32 27 22 21 24 25 25 20 23 28 26 23 17 17 10 7 6 5 4 2 3
27 28 27 26 27 25 26 26 29 25 28 31 37 36 30 24 17 21 15 13 10 7 5 7 6 2 3
29 28 28 26 27 25 26 27 25 26 25 31 29 27 7 3 8 8 15 14 12 8 5 5 5 5 6
Wind_Direction
273 226 221 237 243 253 253 255 259 260 261 269 278 254 263 196 195 196 192 172 177 186 187 186 189 189 198
230 224 210 220 234 253 272 271 266 260 264 265 283 280 241 195 190 191 181 179 179 182 182 174 178 182 195
238 219 203 187 187 176 190 244 273 279 268 269 263 258 210 196 181 180 182 183 179 181 168 173 184 187 195
220 208 201 189 190 169 150 141 124 130 136 126 166 176 172 177 174 177 182 179 176 175 171 177 190 204 230
218 173 174 168 180 177 160 145 127 135 132 129 129 129 134 143 150 151 152 154 155 171 178 180 191 199 204
277 210 186 198 184 178 162 143 115 155 136 123 140 141 145 147 149 152 154 159 162 164 156 161 179 191 215
254 261 210 207 200 180 177 173 164 170 155 123 142 130 133 137 143 139 146 150 147 148 158 174 189 200 225
247 248 250 240 221 211 192 178 156 165 162 125 153 139 144 140 143 149 146 144 148 157 168 178 198 216 242
251 246 251 241 223 195 168 156 123 177 179 140 156 140 146 153 152 146 148 152 156 164 166 185 204 237 265
254 246 243 231 233 218 200 174 147 140 187 140 152 146 136 173 169 167 157 166 156 161 178 201 220 252 284
251 248 233 203 207 208 212 194 175 160 186 178 167 160 122 137 159 170 165 163 172 175 178 185 205 257 289
235 209 183 183 190 196 195 195 199 206 186 187 166 168 141 133 141 164 169 183 185 184 196 207 242 261 257
187 179 174 181 179 174 176 184 178 161 176 184 188 172 161 147 147 159 152 173 183 187 193 218 235 222 188
180 183 172 162 158 166 151 147 137 128 148 160 167 169 138 146 152 152 161 155 173 178 192 187 189 189 336
167 157 150 148 144 151 146 142 128 128 120 130 136 137 144 147 132 147 146 143 160 164 154 144 135 121 349
156 153 148 143 138 142 140 132 127 126 123 128 130 117 108 91 122 137 138 139 141 136 117 128 121 99 59
149 145 140 135 134 129 126 126 123 128 135 143 141 134 112 105 103 144 143 138 133 114 93 98 108 92 50